CST,Max TemperatureF,Mean TemperatureF,Min TemperatureF,Max Dew PointF,MeanDew PointF,Min DewpointF,Max Humidity, Mean Humidity, Min Humidity, Max Sea Level PressureIn, Mean Sea Level PressureIn, Min Sea Level PressureIn, Max VisibilityMiles, Mean VisibilityMiles, Min VisibilityMiles, Max Wind SpeedMPH, Mean Wind SpeedMPH, Max Gust SpeedMPH,PrecipitationIn, CloudCover, Events, WindDirDegrees
2012-11-1,69,56,43,43,40,36,71,55,39,30.01,29.96,29.92,10,10,8,15,7,17,0.00,0,,334
2012-11-2,64,52,39,42,39,33,92,68,43,30.08,29.91,29.84,10,8,5,16,9,22,0.00,0,,60
2012-11-3,60,47,33,38,34,30,89,66,42,30.24,30.18,30.09,10,10,7,13,6,17,0.00,0,,345
2012-11-4,69,54,39,39,36,33,76,53,30,30.19,30.10,29.99,10,10,10,22,10,28,T,3,,228
2012-11-5,50,43,35,38,35,31,89,73,56,30.19,30.13,30.06,10,10,9,23,11,29,0.00,4,,355
2012-11-6,62,49,36,36,27,20,92,56,20,30.15,30.10,30.04,10,10,8,31,12,40,T,1,,294
2012-11-7,60,46,32,31,27,21,64,47,29,30.21,30.11,30.00,10,10,10,14,7,17,0.00,0,,165
2012-11-8,68,54,39,40,34,28,76,55,34,29.98,29.87,29.79,10,10,10,18,8,24,0.00,0,,151
2012-11-9,71,55,38,55,46,36,92,66,39,29.79,29.70,29.59,10,10,10,25,7,35,0.00,0,,180
2012-11-10,75,58,41,56,51,36,86,68,50,29.69,29.57,29.47,10,9,1,37,23,49,0.45,3,Rain-Thunderstorm,192
2012-11-11,41,33,25,34,19,12,85,62,38,30.29,30.02,29.72,10,10,10,26,15,32,0.00,4,,317
2012-11-12,48,35,22,18,15,10,74,48,21,30.41,30.37,30.30,10,10,10,23,9,30,0.00,0,,260
2012-11-13,56,40,24,28,23,17,74,52,30,30.40,30.33,30.26,10,10,10,18,9,22,0.00,0,,186
2012-11-14,56,42,27,30,26,22,78,54,30,30.34,30.27,30.21,10,10,9,15,6,20,0.00,0,,175
2012-11-15,59,46,32,33,30,28,85,59,33,30.43,30.31,30.19,10,10,10,13,3,16,0.00,1,,56
2012-11-16,58,42,25,35,30,24,92,66,40,30.46,30.38,30.30,10,10,10,15,7,17,0.00,0,,137
2012-11-17,63,49,35,35,31,28,76,55,34,30.29,30.19,30.13,10,10,10,30,20,38,0.00,0,,172
2012-11-18,62,54,46,38,33,28,54,46,37,30.12,30.05,29.99,10,10,10,26,19,35,0.00,1,,170
2012-11-19,66,54,41,39,37,34,82,60,37,30.17,30.08,30.00,10,10,10,17,8,23,0.00,0,,259
2012-11-20,66,50,33,37,33,28,82,57,31,30.26,30.19,30.14,10,10,10,20,7,25,0.00,0,,228
2012-11-21,73,61,48,46,41,37,66,48,29,30.13,29.99,29.80,10,10,10,31,21,41,0.00,0,,187
2012-11-22,66,52,38,48,38,23,83,56,29,30.35,29.98,29.74,10,10,10,28,13,35,0.00,0,,285
2012-11-23,40,32,24,23,14,12,63,48,33,30.61,30.50,30.37,10,10,9,21,9,25,0.00,0,,315
2012-11-24,56,39,22,24,20,13,58,44,29,30.40,30.07,29.83,10,10,10,25,14,32,0.00,0,,178
2012-11-25,56,43,29,33,27,23,78,58,38,30.11,29.97,29.88,10,10,10,16,8,20,0.00,0,,38
2012-11-26,39,29,18,26,21,12,85,72,59,30.51,30.36,30.10,10,10,8,21,9,25,0.00,2,,19
2012-11-27,46,30,13,26,19,10,80,61,42,30.50,30.35,30.20,10,10,10,23,9,29,0.00,0,,199
2012-11-28,54,37,20,30,25,20,96,66,35,30.38,30.27,30.10,10,9,2,18,6,23,0.00,0,,150
2012-11-29,58,42,26,35,31,25,92,66,39,30.07,30.00,29.94,10,10,7,15,5,21,0.00,0,,200
2012-11-30,53,43,32,34,30,25,82,64,46,30.12,30.03,29.94,10,10,9,14,5,18,0.00,0,,77